Regional Weather Roundup
Issued by NWS Goodland, KS

Home | Current Version | Previous Version | Text Only | Print | Product List | Glossary Off
Versions: 1 2 3 4 5 6 7 8 9 10 11 12 13 14 15 16 17 18 19 20 21 22 23 24 25 26 27 28 29 30 31 32 33 34 35 36 37 38 39 40 41 42 43 44 45 46 47 48 49 50

000
ASUS43 KGLD 241359
RWRGLD

GOODLAND FORECAST AREA HOURLY WEATHER ROUNDUP
NATIONAL WEATHER SERVICE GOODLAND KS
800 AM MDT MON APR 24 2017

...OFFICIAL OBSERVATIONS...

CITY           SKY/WX    TMP DP  RH WIND       PRES   REMARKS
GOODLAND KS    SUNNY     58  41  53 N22G29    29.59S
HILL CITY KS   CLOUDY    57  38  48 S16G23    29.58S
IMPERIAL NEB   PTSUNNY   52  41  66 NW14      29.59R
MCCOOK NEB     CLOUDY    54  41  61 W9        29.55R
AKRON CO       SUNNY     56  34  43 NW23G29   29.67R
BURLINGTON CO  NOT AVBL
LIMON CO       CLOUDY    52  39  61 NW8       29.70R
$$

...UNOFFICIAL OBSERVATIONS...

CITY           SKY/WX    TMP DP  RH WIND       PRES   REMARKS
LENORA KS        N/A     55  32  41 MISG        N/A
NORTON KS      SUNNY     55  34  44 S14       29.54F
OBERLIN KS     FAIR      55  37  50 SW10      29.59S
SHARON SPRINGS   N/A     59  44  56 NW20G30     N/A
TRENTON NEB      N/A     49  32  52 NW7         N/A
KIT CARSON CO    N/A     56  41  56 MISG        N/A
YUMA CO        FAIR      52  41  66 W5        29.63R
$$



USA.gov is the U.S. government's official web portal to all federal, state and local government web resources and services.